Location: Spor
(46.2167°N, 11.0500°E)
Time: 20:51:52
(UTC+00:00)

STARLINK-1321 - Pass Details

Date: 07 June 2020
Orbit: 379 x 380 km, 53.0° (Epoch: 04 July)

Event Time Altitude Azimuth Distance (km) Brightness Sun altitude
Rises 01:31:31 0° 301° (WNW) 2,257 6.8 -14.4°
Reaches altitude 10° 01:33:39 10° 310° (NW) 1,402 5.8 -14.2°
Maximum altitude 01:36:37 38° 20° (NNE) 604 4.5 -13.9°
Drops below altitude 10° 01:39:34 10° 91° (E) 1,398 6.1 -13.6°
Sets 01:41:42 0° 100° (E) 2,249 7.1 -13.4°
